This is the latest recevied weather packets stored in our database for station/object K3SV. If no packets are shown the sender has not sent any weather packets the latest 10 day(s).
| Time | Temp. | Humidity | Pressure | Rain* | Wind** | Luminosity | Snow |
|---|---|---|---|---|---|---|---|
| 1777674813 | 30.56° C | 52% | 1009.7 hPa | 0 mm | - | 136 W/m² | - |
| 1777674509 | 30.56° C | 51% | 1009.7 hPa | 0 mm | - | 151 W/m² | - |
| 1777674208 | 31.11° C | 51% | 1009.9 hPa | 0 mm | - | 170 W/m² | - |
| 1777673904 | 31.11° C | 50% | 1009.9 hPa | 0 mm | - | 204 W/m² | - |
| 1777673600 | 31.11° C | 51% | 1009.3 hPa | 0 mm | - | 232 W/m² | - |
| 1777673299 | 30° C | 52% | 1009.4 hPa | 0 mm | - | 241 W/m² | - |
| 1777672995 | 30.56° C | 52% | 1009.5 hPa | 0 mm | - | 122 W/m² | - |
| 1777672692 | 30.56° C | 50% | 1009.5 hPa | 0 mm | - | 124 W/m² | - |
| 1777672388 | 30.56° C | 50% | 1009.6 hPa | 0 mm | - | 129 W/m² | - |
| 1777672084 | 30.56° C | 51% | 1009.4 hPa | 0 mm | - | 292 W/m² | - |
| 1777671779 | 30.56° C | 50% | 1009.3 hPa | 0 mm | - | 220 W/m² | - |
| 1777671475 | 31.11° C | 49% | 1009.4 hPa | 0 mm | - | 306 W/m² | - |
| 1777671172 | 31.11° C | 49% | 1009.5 hPa | 0 mm | - | 302 W/m² | - |
| 1777670868 | 31.67° C | 49% | 1009.5 hPa | 0 mm | - | 334 W/m² | - |
| 1777670564 | 31.67° C | 48% | 1009.6 hPa | 0 mm | - | 341 W/m² | - |
| 1777670262 | 31.67° C | 48% | 1009.7 hPa | 0 mm | - | 361 W/m² | - |
| 1777669959 | 31.11° C | 48% | 1009.7 hPa | 0 mm | - | 382 W/m² | - |
| 1777669656 | 31.11° C | 47% | 1009.5 hPa | 0 mm | - | 416 W/m² | - |
| 1777669352 | 32.22° C | 45% | 1009.6 hPa | 0 mm | - | 458 W/m² | - |
| 1777669049 | 31.11° C | 47% | 1009.7 hPa | 0 mm | - | 551 W/m² | - |
| 1777668746 | 30.56° C | 49% | 1009.8 hPa | 0 mm | - | 261 W/m² | - |
| 1777668443 | 30° C | 50% | 1009.5 hPa | 0 mm | - | 220 W/m² | - |
| 1777668140 | 30.56° C | 49% | 1009.5 hPa | 0 mm | - | 189 W/m² | - |
| 1777667835 | 30.56° C | 48% | 1009.6 hPa | 0 mm | - | 199 W/m² | - |
| 1777667533 | 31.11° C | 46% | 1009.5 hPa | 0 mm | - | 196 W/m² | - |
* Rain latest hour (hover to see other rain measurements)
** Current wind speed in m/s (hover to see current wind gust speed)